GFSGBSN_850_rhum_231.txt.gz
RH
38 41 45 51 55 53 51 52 66 81 80 80 97 100 98 100 97 96 91 92 90 81 76 82 82 80 83 99 97 66 66 59 57 57 73 71 67 63 58 52 46 56 50 43 43 43 40
40 51 60 60 56 52 68 81 80 89 94 95 93 94 99 100 98 94 91 86 83 79 76 75 74 72 81 98 85 84 76 70 71 73 84 85 74 65 56 58 53 44 43 42 39 39 37
50 55 58 54 53 70 75 80 87 88 97 99 100 98 98 90 84 80 73 66 60 54 45 44 54 64 82 87 67 67 76 78 67 70 82 73 79 81 73 69 58 54 60 54 50 44 40
57 59 56 57 65 90 89 99 100 100 100 100 98 92 83 75 64 46 26 15 12 6 6 7 8 40 91 56 70 54 58 72 80 82 87 90 78 92 82 73 72 78 71 87 59 53 47
59 59 65 95 95 96 100 100 100 100 98 91 85 73 60 24 10 8 7 4 4 5 6 7 9 20 73 48 76 95 92 80 73 88 94 90 94 92 88 97 96 88 87 81 75 54 54
67 80 98 100 99 100 100 100 98 99 88 78 56 39 17 7 6 5 4 5 10 29 46 35 70 77 32 47 73 61 40 33 57 64 58 91 96 96 91 95 93 79 85 78 72 56 55
87 100 100 99 96 100 98 99 96 86 57 42 16 6 5 4 4 5 10 10 24 40 46 63 73 80 58 30 35 34 41 41 40 44 57 49 89 88 74 73 75 73 75 71 61 53 60
91 100 98 99 100 100 99 94 58 36 15 7 5 4 4 4 6 29 30 59 75 75 86 29 47 40 34 42 49 43 51 50 59 74 67 71 63 47 56 67 68 71 78 80 67 57 59
100 100 99 100 100 98 91 66 42 14 6 4 5 6 7 9 30 28 54 66 64 77 78 43 41 46 33 47 55 48 36 62 76 84 78 89 68 45 38 49 81 87 81 78 74 67 60
100 100 100 98 98 76 52 25 8 5 7 10 12 12 13 25 34 55 59 69 64 76 65 29 43 48 35 29 48 36 24 47 63 82 75 84 72 66 68 52 40 89 75 76 70 76 90
100 100 100 93 59 42 16 6 7 12 14 12 16 17 23 26 45 65 72 63 58 69 25 18 31 31 38 38 33 33 26 36 55 55 75 70 70 74 95 83 39 46 62 82 96 99 100
100 97 80 62 39 12 7 8 13 15 17 18 19 23 31 36 56 56 58 49 53 67 20 40 31 44 46 43 37 34 34 34 36 83 79 70 41 58 94 78 85 56 50 69 84 80 97
91 69 33 15 9 11 11 14 16 17 13 16 18 34 56 46 53 42 36 49 72 55 33 42 54 51 56 57 46 46 52 55 72 95 76 60 52 62 65 83 76 85 75 89 94 93 94
59 29 12 12 14 13 15 18 18 14 14 15 18 51 61 62 59 43 41 65 53 46 48 46 52 51 69 53 50 54 55 60 78 97 87 97 70 74 64 93 99 98 77 77 88 92 91
12 12 16 18 20 20 18 14 12 12 13 21 38 55 45 50 53 47 45 86 70 59 53 63 57 63 59 53 67 70 61 67 82 92 98 97 91 66 66 77 95 100 98 68 78 68 97
15 18 24 24 23 19 15 13 11 15 25 40 49 48 63 70 70 54 77 80 72 57 50 59 88 65 84 62 72 73 83 70 77 95 96 97 96 76 80 86 87 100 99 99 98 95 93
30 31 30 23 22 17 16 15 17 25 38 47 41 63 76 85 72 54 87 91 67 51 51 61 73 80 62 67 67 75 72 63 78 73 87 100 99 75 70 99 98 95 96 98 98 97 95
36 28 26 23 21 21 20 22 22 26 35 35 46 86 81 82 72 97 93 77 55 58 49 57 59 58 61 64 80 72 72 73 50 72 91 97 99 96 70 79 80 95 99 99 97 97 98
25 24 20 20 25 25 26 23 20 18 25 25 64 76 82 83 87 93 76 70 62 62 58 58 58 55 50 72 87 71 73 57 55 63 98 99 89 94 66 83 67 85 81 99 100 98 97
29 26 24 25 27 28 23 19 15 16 24 16 58 89 81 83 76 76 78 77 68 52 61 59 67 58 58 65 64 74 61 56 50 54 56 67 90 84 88 86 88 85 57 60 94 96 97
28 28 30 31 30 29 25 18 16 18 24 15 62 88 81 90 80 73 82 75 72 72 58 62 69 58 74 89 67 64 59 55 49 49 62 73 100 75 57 51 46 48 53 55 96 93 97
36 32 36 38 33 30 33 30 27 27 27 24 70 77 81 85 81 77 74 74 75 74 75 70 72 69 77 84 75 72 69 63 64 62 57 67 85 65 62 40 49 68 59 55 70 95 85
41 44 47 35 38 43 41 36 34 36 36 59 80 85 77 84 82 86 83 74 80 79 69 62 68 80 83 65 61 73 71 60 58 65 66 81 84 76 63 49 56 86 87 64 68 73 73
56 51 38 41 46 47 42 36 33 32 34 48 77 81 84 95 95 84 74 77 84 80 86 69 64 76 64 64 64 50 59 61 59 66 68 86 70 80 84 66 88 98 80 68 76 92 63
50 45 48 49 44 43 42 41 38 36 40 47 85 81 77 91 87 85 79 84 77 69 78 69 58 66 65 65 81 75 70 53 44 49 66 70 74 79 86 81 57 91 91 94 95 96 95
49 51 54 45 43 42 39 38 39 38 36 50 82 94 84 86 89 72 86 79 97 91 88 72 61 62 65 89 88 90 92 77 68 66 53 68 72 81 81 78 89 94 82 81 69 93 97
58 53 48 43 40 35 30 30 34 36 36 60 80 90 82 74 71 77 85 87 79 87 92 85 78 71 73 94 96 100 89 93 95 93 90 88 90 88 97 94 76 82 92 78 93 96 81
48 38 30 29 28 28 26 24 24 23 32 40 71 81 91 91 76 66 67 73 71 85 97 73 77 78 94 96 98 98 99 95 93 91 95 95 95 97 90 94 93 92 79 85 91 79 59
36 28 30 29 28 27 27 25 26 27 26 29 70 89 98 99 67 59 51 61 62 68 77 83 77 82 90 96 98 82 96 97 96 99 76 94 97 98 97 94 87 97 91 80 81 64 59

GFSGBSN_850_rhum_234.txt.gz
RH
27 34 35 34 29 30 40 46 50 51 51 60 75 83 89 95 93 95 97 95 90 91 89 86 80 74 73 91 85 61 63 70 74 74 86 86 82 71 70 62 55 63 49 40 39 39 42
28 30 31 31 36 40 53 53 51 48 59 78 94 100 99 94 93 92 90 89 87 80 72 62 53 49 58 92 69 76 73 70 88 92 94 99 87 77 70 67 64 48 47 45 43 42 41
28 32 34 37 42 49 52 52 53 68 95 100 100 100 100 98 93 88 83 73 53 33 24 13 7 7 20 20 21 37 60 68 71 98 97 99 98 99 83 79 74 68 70 61 53 47 50
31 38 42 47 48 53 49 54 83 99 100 99 100 99 100 92 87 78 57 22 8 5 4 4 5 7 8 19 57 72 80 80 74 62 77 84 85 99 98 87 83 88 86 95 65 59 57
33 41 49 52 56 53 64 99 98 100 99 100 100 99 90 81 65 34 15 6 4 5 7 11 15 10 16 57 40 45 57 39 39 29 41 56 80 97 91 93 90 76 92 83 74 53 58
39 52 58 61 61 79 100 100 97 100 100 100 97 81 77 48 30 8 4 5 12 28 26 38 48 40 50 41 32 42 39 43 46 46 42 51 51 88 83 92 92 77 74 67 70 56 56
49 60 64 65 70 99 100 100 100 100 94 95 74 58 18 5 4 4 6 10 26 29 15 42 66 52 28 32 29 37 32 36 47 53 55 50 60 68 65 59 56 68 96 95 70 59 66
57 59 65 77 99 100 100 100 99 98 92 72 20 8 4 5 11 13 10 23 47 41 49 27 35 34 36 39 45 32 27 34 59 76 74 80 88 57 40 38 41 40 47 69 74 69 59
67 57 78 97 100 100 100 100 98 90 65 30 6 5 4 7 21 19 20 44 56 67 60 26 40 42 36 36 51 32 25 31 72 85 70 86 64 50 62 71 78 74 73 53 47 56 65
48 78 92 100 99 99 100 97 83 52 9 5 6 7 9 20 31 34 42 56 52 55 56 29 42 48 31 34 46 33 23 34 65 74 63 70 60 71 72 70 68 89 64 64 64 53 76
88 97 99 100 100 98 98 82 27 10 8 9 13 13 13 27 21 34 50 54 52 59 25 22 34 36 38 39 36 34 30 33 54 42 48 55 55 64 77 62 57 80 58 66 77 77 71
99 99 100 99 98 94 82 50 11 9 12 11 12 12 15 25 33 39 40 44 57 65 10 48 40 49 49 50 40 36 37 36 38 64 63 72 59 68 62 54 64 65 74 90 97 72 93
100 100 100 99 94 76 30 13 10 12 12 11 13 28 32 34 38 38 44 52 67 55 31 56 59 54 57 61 46 51 54 54 74 84 78 59 55 49 56 83 58 70 81 96 97 96 85
100 100 99 95 72 34 17 12 12 13 11 12 31 45 37 42 46 39 40 56 57 45 50 49 54 58 64 57 52 60 54 56 71 96 88 98 79 60 68 75 78 83 90 97 95 87 62
96 100 93 76 26 17 14 14 14 12 10 28 48 38 47 53 47 37 28 82 66 56 53 63 66 65 58 52 66 67 60 73 78 92 97 95 85 59 53 52 70 95 98 79 98 88 96
96 68 33 22 19 19 16 11 12 11 25 45 37 55 70 60 44 32 75 84 67 56 54 61 89 67 87 62 73 77 82 72 74 86 85 94 94 74 74 74 77 100 98 93 96 96 92
48 33 28 26 21 14 11 12 13 22 44 42 42 63 83 64 40 40 90 86 66 53 54 62 80 85 65 68 66 75 73 62 69 62 61 88 98 72 67 85 97 90 97 93 99 98 89
50 26 26 19 14 13 12 14 22 33 49 48 46 95 85 67 68 97 91 77 62 60 54 57 64 69 61 63 74 72 78 61 46 60 75 95 98 97 66 49 70 63 95 96 97 95 97
32 28 20 15 15 13 15 19 26 39 49 36 74 90 86 72 87 94 74 67 64 61 59 62 61 57 57 73 81 68 63 57 48 57 88 96 91 92 62 55 55 63 61 70 94 98 97
24 22 19 17 16 16 16 15 18 34 36 28 53 92 83 72 75 76 78 73 70 56 62 60 66 62 61 70 66 80 62 54 47 50 47 60 92 90 92 82 66 84 80 95 90 97 97
27 22 19 19 19 18 15 14 18 25 32 22 51 90 78 94 82 80 78 76 74 77 63 64 71 60 80 97 75 66 58 59 52 48 56 67 100 77 63 55 52 81 92 84 94 98 97
24 26 26 25 21 18 16 18 19 31 29 26 56 77 75 86 79 73 78 78 75 76 77 72 72 69 82 95 80 84 79 74 72 63 61 65 92 72 67 43 49 75 86 77 82 90 97
30 32 30 26 21 21 22 21 23 28 30 41 64 57 42 93 85 83 84 72 77 81 70 69 74 83 83 75 64 69 75 78 78 81 74 77 91 82 76 52 58 82 97 96 87 91 94
38 41 34 35 41 33 30 29 36 35 31 17 34 42 55 97 92 82 72 75 81 80 86 74 71 80 62 67 65 56 66 85 86 75 69 89 80 80 88 65 92 93 85 98 97 95 97
47 38 50 46 42 38 35 33 36 32 34 26 33 36 58 99 84 83 79 83 77 75 80 76 61 67 69 65 81 72 72 59 54 56 67 76 79 86 95 85 57 68 88 98 99 96 100
43 47 52 50 46 43 39 38 34 33 35 34 43 38 43 68 86 68 80 80 95 94 88 74 66 64 65 90 91 97 94 86 82 76 63 70 69 88 88 83 93 93 81 83 92 90 84
49 54 50 52 46 44 40 35 31 31 39 43 56 46 48 62 64 65 85 82 81 89 98 80 78 71 72 94 96 100 98 86 97 92 89 92 93 99 99 96 81 76 85 70 86 97 81
55 54 53 46 38 33 28 26 26 28 32 45 51 55 49 65 64 62 64 73 74 82 96 73 75 80 94 97 98 99 99 94 96 90 95 96 98 97 93 89 85 73 73 80 80 82 63
55 46 37 33 28 24 22 21 20 19 22 35 46 66 50 41 68 61 55 58 59 68 78 84 77 80 90 96 98 79 96 99 96 99 74 90 94 93 95 86 74 81 98 77 83 64 57

GFSGBSN_850_rhum_237.txt.gz
RH
51 39 45 45 51 55 54 46 39 32 30 40 48 52 66 79 90 92 92 90 92 86 82 80 77 69 55 63 72 58 64 75 68 68 88 95 93 84 79 62 57 58 50 47 44 42 40
32 32 35 46 46 50 49 39 33 38 44 50 57 64 87 99 100 94 94 93 88 81 75 62 41 18 13 43 62 70 64 51 71 78 74 91 96 89 82 76 68 56 56 58 55 50 46
27 34 26 32 41 40 38 34 35 45 54 54 72 99 99 100 100 94 94 86 75 60 36 17 6 6 8 11 25 44 73 77 79 58 56 70 84 98 96 77 74 74 81 66 63 62 56
35 31 30 25 32 34 35 41 50 58 53 77 99 99 97 98 99 89 79 62 44 27 16 6 7 12 9 40 35 36 43 45 45 37 32 38 66 89 90 83 77 78 76 90 52 45 56
42 29 30 28 31 36 44 57 62 62 79 98 99 97 95 97 90 72 53 40 24 6 9 21 24 20 20 57 36 31 26 35 25 25 28 39 49 64 76 85 80 65 86 72 58 41 43
48 35 31 35 35 38 56 64 65 96 99 100 93 98 97 90 68 47 15 4 5 23 29 46 48 47 27 31 35 42 20 20 22 29 27 38 55 63 60 71 82 65 73 67 61 46 63
46 42 36 37 37 50 66 65 81 100 99 100 99 99 93 82 21 5 4 6 25 28 13 26 33 31 28 25 29 38 22 27 24 43 35 59 54 42 35 38 40 51 57 55 43 35 41
65 31 41 46 46 61 66 80 100 100 97 99 99 94 51 8 5 5 7 12 15 18 34 40 36 36 33 37 36 32 27 28 54 44 58 48 45 37 37 42 52 54 63 63 48 34 32
60 45 54 52 55 66 71 94 98 100 100 99 90 52 6 7 8 13 9 15 19 20 32 27 41 41 32 38 52 39 26 32 42 58 40 46 30 24 36 49 58 59 68 57 57 46 50
72 58 68 54 58 76 80 97 100 100 99 88 25 5 5 16 24 17 24 27 30 27 55 31 40 42 33 38 37 32 25 34 47 46 40 49 36 40 42 48 43 68 46 50 56 68 82
72 71 79 72 70 75 92 99 99 99 84 10 8 9 16 17 18 22 34 29 40 35 38 28 36 40 37 38 36 28 27 33 42 40 43 41 44 51 58 50 42 60 42 48 57 75 82
80 78 77 70 76 92 99 96 99 69 15 13 10 10 20 19 22 28 27 36 46 64 26 44 44 44 48 51 36 38 37 36 40 52 46 47 40 45 49 43 46 49 60 62 68 81 97
73 83 83 70 72 99 100 92 62 24 16 13 12 16 22 22 31 33 36 44 66 59 32 54 50 50 54 50 40 41 45 44 59 79 65 55 40 33 38 49 39 57 70 90 81 96 80
86 86 84 65 88 100 98 78 51 30 17 10 20 27 30 28 34 40 43 48 60 48 54 49 52 53 48 48 47 53 43 52 66 75 79 83 71 47 38 64 77 75 86 94 93 76 67
84 78 82 90 98 97 86 36 27 16 20 24 24 28 32 36 40 34 30 82 68 52 53 56 54 56 50 41 57 54 50 63 71 83 78 86 65 51 50 42 52 82 94 87 98 79 94
84 100 99 99 95 60 29 30 24 21 24 27 23 30 44 37 29 32 74 73 57 51 54 60 76 62 74 54 59 68 74 64 69 76 73 74 92 67 47 55 82 79 69 86 76 92 88
100 100 99 92 67 48 47 38 27 24 35 28 18 40 52 38 35 38 89 74 58 54 56 61 73 78 63 62 56 57 62 52 59 50 52 74 92 66 45 66 89 68 84 94 94 90 93
99 100 98 79 56 48 38 21 14 39 28 28 44 93 62 42 64 93 88 65 64 59 55 57 61 63 64 60 62 56 58 51 45 55 66 68 93 84 55 40 45 55 90 97 95 88 95
98 95 85 68 58 40 17 13 28 33 29 32 74 92 72 42 84 89 72 65 62 58 58 58 59 57 58 64 79 62 56 48 50 52 70 80 79 82 54 42 49 76 93 95 92 97 96
94 77 54 51 32 17 16 19 33 36 30 26 59 93 69 57 68 72 69 68 65 61 61 61 60 62 60 64 58 70 60 50 53 52 52 53 87 79 82 74 65 95 84 87 90 94 94
67 51 37 23 17 19 24 33 45 39 34 24 45 88 72 92 79 77 70 66 70 71 66 66 63 58 74 86 73 64 51 60 53 52 56 54 89 68 63 54 52 92 86 88 94 95 93
53 28 20 16 20 19 21 34 43 47 37 23 49 71 70 87 78 71 74 76 72 74 75 61 64 62 76 92 78 85 74 66 69 58 65 59 76 66 62 38 47 56 72 73 87 94 93
26 24 21 18 16 16 20 24 29 32 30 26 47 42 36 94 77 73 74 69 74 78 71 70 70 78 83 66 66 70 74 73 72 81 81 71 77 72 64 44 52 70 96 93 86 93 94
20 17 18 18 19 20 19 19 29 30 24 19 24 28 46 90 76 68 70 70 72 74 78 74 74 74 61 67 59 56 70 81 84 74 80 84 78 70 70 51 79 78 64 95 86 92 94
22 22 23 28 30 30 29 28 30 31 24 18 19 22 36 91 73 76 75 73 78 78 76 76 65 65 69 64 65 62 60 51 51 58 62 68 74 80 78 65 48 60 74 96 89 94 78
27 34 39 37 35 30 30 30 27 25 26 21 23 19 23 73 78 62 78 77 82 84 72 72 65 65 64 74 78 82 82 73 63 60 57 63 61 75 83 77 82 71 66 72 98 83 76
46 44 42 39 36 36 31 27 26 24 29 25 25 24 22 55 69 54 69 71 79 88 85 84 80 70 65 78 83 92 73 76 81 86 75 69 79 92 91 90 74 61 69 61 67 85 76
50 47 44 41 38 35 31 28 27 27 28 24 26 24 22 48 62 56 54 60 78 77 83 78 69 79 86 92 87 92 88 84 86 79 78 86 85 88 84 77 80 68 65 76 81 82 63
56 51 44 38 33 28 26 27 26 26 23 25 22 21 18 22 56 58 49 53 56 66 75 85 74 81 91 89 93 79 83 90 92 74 63 70 82 84 79 68 62 74 88 84 81 87 63

GFSGBSN_850_rhum_240.txt.gz
RH
57 69 84 92 73 63 58 57 53 58 53 42 37 42 44 47 55 67 77 81 82 84 83 74 66 60 42 55 54 64 72 75 71 75 75 76 75 66 65 48 43 45 38 38 38 38 38
72 55 84 92 76 67 62 54 59 55 47 38 40 47 51 54 79 97 94 90 88 82 70 56 42 22 22 32 42 53 55 48 58 44 42 54 57 62 76 64 54 43 44 44 43 43 42
71 58 84 88 77 71 64 55 50 51 40 39 48 54 50 78 100 99 98 89 78 61 51 32 16 9 26 20 53 57 49 50 53 50 46 46 54 55 46 49 46 49 61 47 45 45 42
74 68 63 85 84 74 60 57 52 42 38 50 57 53 73 98 97 97 95 75 59 41 26 10 9 10 18 37 38 35 30 33 31 31 36 35 39 56 53 48 45 45 40 46 26 28 31
88 83 45 52 72 67 63 49 41 35 54 57 58 78 96 95 93 92 76 56 26 8 11 17 22 22 35 45 38 42 27 26 31 21 24 37 43 39 37 47 46 37 48 39 31 21 22
100 85 62 48 60 59 52 42 33 32 54 58 70 99 97 94 90 81 53 16 11 20 26 28 28 44 26 29 38 36 24 24 27 32 19 23 26 34 33 39 46 27 24 21 21 17 27
100 84 53 44 50 53 49 38 32 41 59 86 95 99 95 96 95 71 21 10 30 35 26 33 36 28 25 33 31 31 28 21 22 24 23 27 32 25 19 17 18 20 24 25 18 15 18
100 92 65 44 52 48 42 43 43 53 63 94 99 99 98 95 81 15 6 8 12 22 37 47 43 35 31 37 35 26 26 21 22 23 26 23 23 16 16 15 18 22 28 29 22 19 24
97 78 83 56 47 42 38 40 55 67 71 99 93 100 96 62 10 7 8 10 10 12 32 33 44 34 31 39 26 20 21 24 20 24 24 29 20 18 22 25 30 28 30 27 29 26 24
94 92 88 48 44 37 40 35 59 67 93 91 99 99 77 16 12 11 14 13 12 17 36 35 30 36 30 33 31 22 22 25 22 29 29 26 21 25 30 31 29 38 28 32 33 35 47
99 95 78 51 47 42 41 54 76 90 94 98 99 76 16 14 22 19 19 15 21 19 56 30 28 35 35 24 24 16 28 29 30 32 32 32 30 30 38 37 34 42 35 40 42 52 66
98 96 75 58 60 35 56 84 82 100 100 96 53 14 19 18 15 22 21 26 25 63 50 38 30 28 27 24 22 24 27 31 36 34 26 28 25 29 30 32 35 33 41 41 42 49 89
99 98 70 60 50 57 89 81 98 99 88 25 14 22 24 23 26 23 28 36 78 69 31 34 30 30 27 26 24 28 26 42 59 58 48 32 24 25 32 44 36 38 54 76 70 86 76
100 63 64 61 71 92 100 99 98 56 40 22 22 34 32 28 26 32 33 32 70 42 32 32 32 26 27 29 28 30 25 38 49 58 51 66 55 38 34 45 56 53 63 94 90 66 56
96 71 76 95 90 99 100 100 93 38 36 28 33 39 36 39 30 32 38 78 57 33 32 33 30 27 26 32 40 38 34 38 75 100 76 73 59 39 39 37 44 71 84 66 97 63 76
87 89 100 87 99 100 100 95 57 59 39 39 45 32 55 38 29 33 76 66 41 37 38 40 44 39 56 39 46 51 56 74 89 54 51 84 83 58 36 37 48 70 60 85 72 88 79
98 98 98 93 91 100 86 90 70 55 47 44 23 52 57 32 27 45 81 50 40 41 41 41 52 66 43 43 41 40 38 31 34 36 38 91 86 56 35 62 91 80 80 88 98 88 88
100 98 94 90 91 93 90 73 61 51 44 33 33 82 51 32 59 91 72 41 39 40 45 42 40 43 46 46 50 44 42 35 33 40 54 48 88 70 38 32 39 50 93 98 94 86 97
99 99 92 92 100 88 68 57 49 45 33 24 73 59 45 27 77 74 46 48 41 42 39 41 42 41 42 51 64 42 43 37 41 43 64 64 64 62 40 36 36 76 88 92 88 99 95
100 96 99 99 89 80 72 57 61 44 33 14 65 82 51 61 41 39 39 40 48 51 45 43 40 45 44 47 43 56 42 38 44 42 52 47 71 75 77 69 65 94 87 89 80 91 89
98 95 96 91 84 73 56 55 62 40 23 9 46 73 45 72 59 38 37 36 42 44 45 47 46 44 57 71 46 40 40 48 39 48 47 50 79 52 47 38 49 82 87 84 94 93 90
99 94 90 86 56 46 36 52 47 32 21 12 51 68 53 38 42 43 56 48 39 49 42 41 42 44 56 77 65 76 65 47 47 44 49 48 64 49 51 32 42 79 68 72 76 88 92
90 74 51 39 34 28 28 49 38 27 20 19 40 64 62 50 40 40 45 45 42 45 54 44 48 54 68 50 52 54 56 55 54 61 59 56 58 53 46 35 38 63 94 82 76 79 74
37 47 30 32 45 41 42 46 36 26 23 17 43 42 72 65 44 41 42 45 48 49 49 50 58 51 55 65 62 59 58 53 54 51 56 73 62 52 55 37 62 80 64 85 80 74 69
30 30 35 37 34 35 36 39 35 33 21 18 16 18 58 62 40 45 49 46 52 57 51 48 56 64 73 60 47 39 38 37 40 39 43 49 56 68 63 44 46 44 71 92 74 74 52
37 28 23 21 19 18 20 25 29 25 21 23 14 10 22 69 50 44 53 47 47 46 50 52 69 73 65 51 59 54 48 52 40 39 41 50 50 63 64 51 61 54 44 54 97 66 49
27 24 19 18 19 18 22 24 24 23 21 20 15 10 15 65 53 51 48 52 56 54 51 56 60 59 60 53 59 54 50 56 50 52 50 48 58 66 69 67 48 39 41 40 57 75 50
35 31 30 30 31 31 30 31 28 29 30 19 17 14 14 62 67 61 68 60 63 57 49 73 63 72 60 81 68 67 59 69 69 54 54 63 71 57 53 53 55 39 35 56 64 59 49
34 37 36 33 31 31 27 24 26 25 24 20 17 16 11 38 56 51 66 67 61 66 64 80 67 83 93 81 82 64 65 70 76 48 45 54 55 61 60 56 40 47 53 54 56 54 52

GFSGBSN_850_rhum_246.txt.gz
RH
92 64 61 85 90 89 73 61 66 65 64 70 69 64 60 48 40 45 47 46 67 78 74 69 62 55 46 43 35 38 34 35 33 32 33 33 29 26 26 25 25 27 26 27 28 26 24
100 94 76 72 82 94 76 71 63 68 67 76 64 62 56 47 41 47 54 48 69 83 78 67 60 40 38 34 35 29 23 19 22 24 21 20 19 20 20 20 21 20 21 20 20 19 19
100 99 90 75 69 72 87 88 65 67 72 78 67 63 50 44 52 51 67 72 85 83 75 62 36 19 37 28 32 28 22 17 19 22 18 18 19 19 18 16 16 21 24 20 18 17 17
99 100 100 95 81 66 82 89 73 76 78 84 63 64 50 44 40 61 86 86 80 80 64 35 20 19 32 32 25 27 20 17 14 17 15 15 16 19 21 22 22 23 21 26 17 15 14
88 100 100 100 95 77 75 86 92 81 81 74 69 62 47 47 43 56 91 86 83 61 35 18 49 48 28 30 25 25 21 19 15 17 17 19 17 19 22 26 29 23 27 23 18 10 8
70 87 100 100 99 85 78 85 100 96 83 71 70 57 51 66 52 73 87 87 59 36 32 47 33 40 24 20 20 21 20 16 16 17 17 16 16 18 19 21 30 21 18 16 14 9 8
69 76 98 92 95 95 77 88 100 100 81 74 70 53 62 75 81 86 93 72 42 43 30 21 20 18 16 19 21 21 16 16 17 17 17 14 19 23 18 15 13 13 14 15 13 12 15
72 72 96 93 100 95 89 82 100 100 84 77 66 58 76 99 93 88 86 37 38 42 35 28 23 20 23 20 22 14 15 17 16 19 18 21 24 14 14 14 16 18 21 22 19 16 19
77 70 76 92 99 97 94 83 96 98 83 75 58 63 91 100 95 87 63 44 17 17 35 31 27 22 19 17 18 14 18 17 16 21 24 27 21 16 17 19 22 22 25 26 27 22 20
82 67 66 84 98 97 98 80 90 93 81 69 55 71 97 100 86 70 42 26 12 14 50 35 27 26 20 17 25 14 21 21 20 26 24 25 20 19 20 22 22 31 23 25 27 30 40
81 75 64 73 100 100 98 80 89 85 76 61 71 98 96 88 63 43 42 10 6 12 77 28 20 24 21 15 14 15 21 26 26 30 24 27 21 21 25 26 24 32 24 30 32 41 48
64 73 70 73 94 98 96 69 59 69 72 64 92 99 91 84 62 43 17 11 16 82 77 26 16 17 17 15 15 17 20 26 28 26 22 23 17 18 26 26 28 30 41 37 36 40 77
76 75 75 82 100 94 100 75 95 79 69 91 100 84 78 70 34 21 31 30 92 91 25 24 18 18 17 18 19 20 19 33 49 59 49 32 24 24 31 45 33 48 50 75 64 68 75
82 78 78 82 95 100 100 96 87 72 92 99 95 83 59 56 27 29 48 60 86 56 20 15 15 15 21 24 23 23 22 33 37 49 66 63 62 35 35 38 46 46 53 82 83 66 65
84 79 80 82 96 100 98 78 69 89 100 96 91 59 30 30 30 36 64 95 94 32 18 18 17 20 24 28 30 28 27 29 61 96 72 74 57 37 33 29 44 59 72 52 81 64 92
86 82 83 90 99 100 95 66 87 97 100 97 60 36 52 63 54 46 86 94 35 20 18 17 28 27 31 28 33 53 36 50 63 35 69 95 77 50 41 35 46 52 47 75 61 86 92
86 89 91 100 100 100 84 92 83 100 97 64 38 54 55 44 42 83 100 67 28 20 22 31 34 43 30 29 27 28 25 24 24 30 29 94 92 56 43 68 83 80 84 85 96 85 95
88 97 94 99 100 92 94 100 100 99 82 48 83 97 97 71 83 92 92 28 20 21 27 23 27 27 28 28 26 30 28 25 32 33 40 39 93 78 52 40 42 57 78 93 96 86 71
96 98 99 98 87 100 89 99 97 97 78 67 94 96 91 91 94 88 41 24 22 25 26 28 28 25 25 36 40 26 30 31 35 34 46 49 66 66 42 44 46 66 62 72 85 79 86
100 99 100 99 100 100 100 94 95 87 59 69 88 96 90 99 78 42 35 30 28 24 26 27 26 26 30 30 30 36 25 30 36 34 41 48 72 82 66 79 59 77 78 71 77 87 80
98 98 100 100 98 83 88 96 94 78 75 71 80 77 50 83 72 43 35 30 30 32 28 26 31 30 33 56 31 30 25 30 32 28 41 41 75 43 34 42 43 53 66 77 91 92 89
99 100 90 89 86 95 94 97 88 84 81 79 62 47 34 42 41 40 50 43 32 29 32 30 36 31 44 65 50 65 42 33 32 29 29 29 43 34 40 36 40 52 48 58 67 72 77
99 99 100 100 74 72 92 84 90 92 80 55 54 35 41 42 41 46 45 34 27 28 30 26 25 36 51 32 29 30 34 36 35 38 40 42 44 44 44 29 48 72 83 56 57 63 53
95 93 100 100 95 95 99 98 94 83 70 20 35 41 45 57 44 43 27 23 25 32 32 28 32 35 39 42 41 38 37 34 33 31 32 43 40 42 52 52 82 74 52 48 52 40 33
100 100 100 98 97 99 99 95 86 57 33 47 48 42 46 57 36 32 26 24 26 31 31 34 38 47 48 40 50 42 44 40 34 25 27 29 40 53 55 54 53 32 43 67 56 68 34
100 100 99 99 100 98 98 79 64 40 33 57 52 45 42 50 41 27 30 28 44 39 36 37 45 50 54 49 55 56 33 28 29 30 19 25 31 59 54 56 47 32 21 22 42 92 45
100 100 100 99 99 100 92 73 50 64 60 52 55 53 41 37 27 27 34 43 33 39 44 41 47 54 56 59 66 38 34 26 39 30 28 32 37 55 53 58 45 27 23 24 62 63 34
100 100 96 96 99 95 84 40 45 57 49 49 52 49 39 34 28 28 32 31 31 32 52 43 51 55 57 84 65 43 49 47 35 29 24 36 41 49 42 53 54 28 28 40 39 32 31
100 99 97 100 95 85 45 41 40 37 49 50 46 40 36 41 46 46 53 48 45 34 39 48 56 58 83 82 80 47 41 53 41 40 35 42 45 44 40 63 36 33 29 27 32 34 38